User: anonymous   Login
Location: Colebrook
(42.0017°N, 73.0973°W)
Time: 05:22:52
(UTC-04:00)
Language:

Courier 1B - Orbit

View from above orbital plane
View from above orbital plane
View from above satellite
View from above satellite

Ground track
Ground track

The orbit data is extracted from the following two-line orbital elements,

1 00058U 60013A   21293.85067570  .00000109  00000-0  33267-4 0  9993
2 00058  28.3263 126.7051 0165014 169.3469 191.0629 13.46329151  4744
Epoch (UTC): 20 October 2021 20:24:58
Eccentricity: 0.0165014
inclination: 28.3263°
perigee height: 962 km
apogee height: 1209 km
right ascension of ascending node: 126.7051°
argument of perigee: 169.3469°
revolutions per day: 13.46329151
mean anomaly at epoch: 191.0629°
orbit number at epoch: 474

The dashed part of the orbit path shows where the satellite is in the earth's shadow,  

DLR